Weather History for KEAU - October, 2012

Change the Weather History Date:

Monday, October 8, 2012

  Actual Average Record
Temperature  
Mean Temperature 50 °F 50 °F  
Max Temperature 63 °F 62 °F 84 °F (2011)
Min Temperature 36 °F 39 °F 23 °F (1987)
Degree Days  
Heating Degree Days 15 15  
Month to date heating degree days 129 108  
Since 1 July heating degree days 370 341  
Cooling Degree Days 0 0  
Month to date cooling degree days 0 0  
Year to date cooling degree days 830 575  
Moisture  
Dew Point 27 °F    
Average Humidity 42    
Maximum Humidity 56    
Minimum Humidity 27    
Precipitation  
Precipitation T in 0.08 in 2.79 in (1949)
Month to date precipitation T 0.76  
Year to date precipitation 20.17 26.56  
Snow  
Snow 0.00 in 0.00 in T in (1915)
Month to date snowfall T 0.0  
Since 1 July snowfall T 0.0  
Since 1 September snowfall T 0.0  
Snow Depth 0.00 in    
Sea Level Pressure  
Sea Level Pressure 29.78 in    
Wind  
Wind Speed 12 mph (South)    
Max Wind Speed 24 mph    
Max Gust Speed 32 mph    
Visibility 10 miles    
Events      
T = Trace of Precipitation, MM = Missing Value Source: NWS Daily Summary

Daily Weather History Graph

Daily Weather History Graph

Search for Another Location

Airport or City:

Trip Planner

Search our weather history database for the weather conditions in past years. The results will help you decide how hot, cold, wet, or windy it might be!

Date:

Astronomy

Oct. 08, 2012 Rise Set
Actual Time 7:13 AM CDT 6:32 PM CDT
Civil Twilight 6:43 AM CDT 7:01 PM CDT
Nautical Twilight 6:10 AM CDT 7:35 PM CDT
Astronomical Twilight 5:35 AM CDT 8:09 PM CDT
Moon No Moon Rise 2:37 PM CDT (10/8)
Length of Visible Light 12h 18m
Length of Day
11h 19m
Last Quarter, 46% of the Moon is Illuminated
Oct 8
Last Quarter
Oct 15
New
Oct 21
First Quarter
Oct 29
Full
Nov 6
Last Quarter

Hourly Weather History & Observations

Time (CDT) Temp. Windchill Dew Point Humidity Pressure Visibility Wind Dir Wind Speed Gust Speed Precip Events Conditions
12:56 AM 39.9 °F 35.1 °F 19.0 °F 43% 29.94 in 10.0 mi South 6.9 mph - N/A   Overcast
1:56 AM 39.0 °F 32.8 °F 19.0 °F 45% 29.93 in 10.0 mi South 9.2 mph - N/A   Clear
2:56 AM 37.9 °F 32.1 °F 19.9 °F 48% 29.91 in 10.0 mi South 8.1 mph - N/A   Clear
3:56 AM 37.9 °F 32.1 °F 19.9 °F 48% 29.88 in 10.0 mi South 8.1 mph - N/A   Clear
4:56 AM 37.0 °F 31.6 °F 21.0 °F 52% 29.88 in 10.0 mi South 6.9 mph - N/A   Clear
5:56 AM 36.0 °F 30.3 °F 21.0 °F 55% 29.87 in 10.0 mi South 6.9 mph - N/A   Clear
6:56 AM 36.0 °F 29.0 °F 21.9 °F 57% 29.86 in 10.0 mi South 9.2 mph - N/A   Clear
7:56 AM 37.9 °F 30.9 °F 23.0 °F 55% 29.86 in 10.0 mi South 10.4 mph - N/A   Clear
8:56 AM 41.0 °F 35.8 °F 26.1 °F 55% 29.84 in 10.0 mi South 8.1 mph - N/A   Scattered Clouds
9:56 AM 44.1 °F 39.5 °F 28.0 °F 53% 29.84 in 10.0 mi South 8.1 mph - N/A   Overcast
10:56 AM 46.9 °F - 28.9 °F 50% 29.80 in 10.0 mi South 11.5 mph 18.4 mph N/A   Overcast
11:56 AM 48.9 °F - 30.0 °F 48% 29.79 in 10.0 mi South 13.8 mph 21.9 mph N/A   Overcast
12:56 PM 50.0 °F - 30.9 °F 48% 29.76 in 10.0 mi South 17.3 mph 23.0 mph N/A   Overcast
1:56 PM 54.0 °F - 30.9 °F 41% 29.72 in 10.0 mi South 13.8 mph 24.2 mph N/A   Overcast
3:56 PM 57.9 °F - 32.0 °F 37% 29.67 in 10.0 mi South 12.7 mph 25.3 mph N/A   Overcast
4:56 PM 61.0 °F - 32.0 °F 34% 29.63 in 10.0 mi South 15.0 mph - N/A   Overcast
5:56 PM 62.1 °F - 30.9 °F 31% 29.62 in 10.0 mi South 17.3 mph - N/A   Overcast
6:56 PM 63.0 °F - 30.0 °F 29% 29.64 in 10.0 mi SSW 15.0 mph 26.5 mph N/A   Overcast
7:56 PM 63.0 °F - 28.9 °F 28% 29.65 in 10.0 mi SSW 16.1 mph 25.3 mph N/A   Overcast
9:56 PM 61.0 °F - 35.1 °F 38% 29.68 in 10.0 mi SW 10.4 mph 19.6 mph 0.00 in   Overcast
10:56 PM 57.9 °F - 39.0 °F 49% 29.70 in 10.0 mi West 10.4 mph - 0.00 in   Overcast
11:56 PM 54.0 °F - 36.0 °F 51% 29.73 in 10.0 mi WNW 13.8 mph - N/A   Overcast